Location: Hard
(49.9417°N, 12.0858°E)
Time: 17:53:00
(UTC+00:00)

Cosmos 2208 Rocket - Pass Details

Date: 07 June 2020
Orbit: 753 x 807 km, 74.0° (Epoch: 08 July)

Event Time Altitude Azimuth Distance (km) Brightness Sun altitude
Exits shadow 00:23:40 24° 208° (SSW) 1,557 5.0 -15.5°
Maximum altitude 00:26:54 82° 293° (WNW) 798 4.0 -15.3°
Drops below altitude 10° 00:32:19 10° 23° (NNE) 2,368 8.0 -15.1°
Sets 00:34:44 0° 24° (NNE) 3,310 9.2 -14.9°
